Location: El Hornillo
(40.2499°N, 5.1036°W)
Time: 16:30:46
(UTC+00:00)

Cosmos 2173 Rocket - Pass Details

Date: 05 August 2024
Orbit: 945 x 999 km, 82.9° (Epoch: 18 September)

Event Time Altitude Azimuth Distance (km) Brightness Sun altitude
Exits shadow 22:49:05 83° 202° (SSW) 970 3.8 -28.8°
Maximum altitude 22:49:21 88° 276° (W) 964 3.8 -28.8°
Drops below altitude 10° 22:55:35 10° 7° (N) 2,716 7.0 -29.3°
Sets 22:58:06 0° 8° (N) 3,675 7.8 -29.5°
